FW2422 Weather Reports


Display with metric or nautical units.
time (UTC)temp
F
wind
direction
speed
MPH
gust
MPH
rain 1hr
in
rain 24hr
in
rain mn
in
humidity
%
barometer
mb
20260831033049 90 192 0.0 2.0 0.00 0.00 0.00 44 1012.9
20260831031557 90 201 0.0 0.0 0.00 0.00 0.00 44 1013.0
20260831030048 90 210 0.0 0.0 0.00 0.00 0.00 43 1012.9
20260831024531 91 174 0.0 0.0 0.00 0.00 0.00 42 1012.7
20260830233043 100 169 3.0 9.0 0.00 0.00 0.00 33 1011.9
20260830231542 101 142 1.0 7.0 0.00 0.00 0.00 32 1011.9
20260830230042 101 165 3.0 6.0 0.00 0.00 0.00 31 1011.9
20260830224548 101 226 2.0 8.0 0.00 0.00 0.00 31 1012.1
20260830223044 102 269 1.0 9.0 0.00 0.00 0.00 30 1011.9
20260830221538 102 230 0.0 6.0 0.00 0.00 0.00 30 1012.1
20260830220041 100 155 1.0 7.0 0.00 0.00 0.00 31 1012.1
20260830214536 100 181 2.0 8.0 0.00 0.00 0.00 31 1012.1
20260830204536 101 186 1.0 8.0 0.00 0.00 0.00 31 1012.8
20260830203023 102 152 2.0 10.0 0.00 0.00 0.00 31 1012.9
20260830201520 102 186 1.0 9.0 0.00 0.00 0.00 31 1013.2
20260830200029 101 134 5.0 13.0 0.00 0.00 0.00 33 1013.4
20260830194517 101 229 3.0 8.0 0.00 0.00 0.00 32 1013.5
20260830193016 100 231 4.0 12.0 0.00 0.00 0.00 32 1013.9
20260830191514 100 289 2.0 13.0 0.00 0.00 0.00 33 1014.1
20260830190014 101 102 3.0 9.0 0.00 0.00 0.00 33 1014.4
20260830184517 100 246 2.0 6.0 0.00 0.00 0.00 34 1014.4
20260830183009 99 101 3.0 12.0 0.00 0.00 0.00 35 1014.6
20260830181508 99 110 4.0 11.0 0.00 0.00 0.00 35 1014.8
20260830180009 99 214 3.0 8.0 0.00 0.00 0.00 38 1015.1
20260830174506 99 222 3.0 8.0 0.00 0.00 0.00 37 1015.2
20260830173116 98 176 1.0 7.0 0.00 0.00 0.00 39 1015.4
20260830171601 98 163 2.0 8.0 0.00 0.00 0.00 39 1015.7
20260830170101 98 172 0.0 6.0 0.00 0.00 0.00 40 1015.8
20260830164601 96 111 2.0 6.0 0.00 0.00 0.00 43 1015.9
20260830163108 96 225 1.0 7.0 0.00 0.00 0.00 45 1016.2
20260830161550 95 110 2.0 7.0 0.00 0.00 0.00 46 1016.2
20260830160046 93 181 2.0 7.0 0.00 0.00 0.00 49 1016.1
20260830154546 93 309 1.0 7.0 0.00 0.00 0.00 49 1016.2
20260830153038 92 283 0.0 4.0 0.00 0.00 0.00 51 1016.2
20260830151535 91 283 1.0 5.0 0.00 0.00 0.00 53 1016.1
20260830150039 90 250 1.0 4.0 0.00 0.00 0.00 55 1016.2
20260830144530 89 210 1.0 5.0 0.00 0.00 0.00 57 1016.1
20260830143028 88 190 1.0 4.0 0.00 0.00 0.00 60 1016.2
20260830141527 88 157 1.0 5.0 0.00 0.00 0.00 61 1016.4
20260830140024 87 146 1.0 5.0 0.00 0.00 0.00 63 1016.3
20260830134526 86 197 0.0 2.0 0.00 0.00 0.00 64 1016.2
20260830133024 84 222 0.0 4.0 0.00 0.00 0.00 66 1016.1
20260830131532 83 145 0.0 3.0 0.00 0.00 0.00 67 1015.9
20260830130017 81 139 0.0 4.0 0.00 0.00 0.00 69 1015.8
20260830124508 81 162 0.0 3.0 0.00 0.00 0.00 69 1015.6
20260830113030 79 152 0.0 1.0 0.00 0.00 0.00 69 1014.6
20260830111530 79 145 0.0 1.0 0.00 0.00 0.00 68 1014.5
20260830110028 79 160 0.0 0.0 0.00 0.00 0.00 66 1014.4
20260830104524 80 127 0.0 0.0 0.00 0.00 0.00 65 1014.3
20260830103026 80 156 0.0 0.0 0.00 0.00 0.00 63 1014.3
20260830101520 81 216 0.0 0.0 0.00 0.00 0.00 61 1014.2
20260830100018 81 170 0.0 1.0 0.00 0.00 0.00 60 1014.2
20260830094515 81 210 0.0 1.0 0.00 0.00 0.00 60 1014.0
20260830093015 82 132 0.0 1.0 0.00 0.00 0.00 59 1014.1
20260830091514 82 94 0.0 1.0 0.00 0.00 0.00 58 1014.0
20260830090014 82 94 0.0 0.0 0.00 0.00 0.00 57 1014.1
20260830084512 82 94 0.0 0.0 0.00 0.00 0.00 56 1014.0
20260830083016 82 94 0.0 1.0 0.00 0.00 0.00 55 1014.2
20260830081514 83 160 0.0 2.0 0.00 0.00 0.00 53 1014.2
20260830080005 84 132 0.0 4.0 0.00 0.00 0.00 52 1014.0
20260830074503 84 101 0.0 2.0 0.00 0.00 0.00 51 1014.0
20260830073001 85 96 0.0 0.0 0.00 0.00 0.00 50 1014.1
20260830071602 85 141 0.0 1.0 0.00 0.00 0.00 50 1014.1
20260830070058 86 122 0.0 3.0 0.00 0.00 0.00 49 1014.2
20260830064557 86 134 0.0 4.0 0.00 0.00 0.00 49 1014.3
20260830063106 87 167 1.0 5.0 0.00 0.00 0.00 49 1014.2
20260830061555 86 126 0.0 4.0 0.00 0.00 0.00 48 1014.2
20260830060054 86 103 1.0 3.0 0.00 0.00 0.00 48 1014.2
20260830054550 87 98 0.0 2.0 0.00 0.00 0.00 46 1014.1
20260830053054 88 200 0.0 1.0 0.00 0.00 0.00 45 1013.9
20260830051546 88 153 0.0 2.0 0.00 0.00 0.00 44 1013.9
20260830050043 89 199 0.0 3.0 0.00 0.00 0.00 44 1013.9
20260830044551 89 146 0.0 1.0 0.00 0.00 0.00 43 1014.0
20260830043043 89 145 0.0 3.0 0.00 0.00 0.00 42 1013.9
20260830041551 89 124 0.0 1.0 0.00 0.00 0.00 42 1013.8
20260830040042 89 172 0.0 2.0 0.00 0.00 0.00 42 1013.7
20260830034543 90 170 0.0 0.0 0.00 0.00 0.00 42 1013.8